Theta_e
303 304 304 304 304 304 304 304 304 304 305 305 305 305 305 305 304 303 303 303 303 302 302 303 303 302 302 302 302 303 303 304 304 305 309 310 310 310 308 307 307 308 307 307 313 314 313 317 318 318 318 318 317 317 317 317 318 317 317 317 316 316 317 319 320 319 320 321 320 321 321 322 327 327 331 332 333 335 332 340 343 344 349 349 351 351 349 350
303 303 303 304 305 305 304 304 303 303 305 305 304 304 305 304 303 302 302 302 302 302 302 303 303 302 302 302 302 303 303 303 304 306 309 309 309 308 307 307 307 308 307 310 316 313 314 317 318 319 317 318 317 317 318 317 317 317 318 316 316 318 320 320 320 320 321 321 320 321 321 321 327 329 331 329 330 335 334 336 340 345 349 350 352 350 349 350
303 303 303 304 304 304 304 303 303 303 304 304 304 304 304 304 304 303 302 302 302 302 302 302 302 302 302 302 302 302 303 305 308 310 311 309 309 308 307 307 307 307 307 313 317 313 314 316 317 319 316 317 318 317 318 317 317 317 317 316 317 319 320 320 320 321 321 321 321 321 320 321 328 331 330 328 330 333 333 334 336 344 349 350 351 349 349 350
303 303 303 303 303 303 303 303 303 303 303 304 304 304 304 304 305 304 302 301 302 302 301 302 302 302 302 302 302 301 306 310 311 312 312 311 309 308 308 307 307 307 307 312 316 314 315 316 317 318 316 317 317 317 317 317 317 317 317 317 318 320 320 320 319 320 320 320 320 320 321 321 326 329 327 330 332 330 332 333 333 342 348 350 350 349 350 349
303 303 303 303 302 302 303 302 301 302 302 303 303 303 304 304 305 305 304 301 302 302 301 301 301 302 301 302 301 303 309 312 312 315 313 311 310 308 308 307 308 307 307 311 314 315 315 315 317 316 316 317 317 317 317 318 318 317 317 317 319 320 319 319 319 318 319 319 319 320 320 321 323 324 326 331 331 329 332 332 334 343 347 348 349 349 349 349
303 303 303 303 303 302 302 301 301 300 301 303 303 303 304 304 304 305 304 302 301 302 301 301 301 301 301 302 300 303 310 311 312 316 312 310 309 307 307 307 307 307 307 311 313 314 315 315 316 316 316 317 317 317 317 317 318 317 317 318 319 319 319 319 318 318 319 319 320 321 320 320 321 322 325 329 330 331 334 334 336 343 344 344 348 349 348 348
302 303 303 304 303 303 302 301 300 300 301 302 303 303 303 304 304 305 305 303 300 301 301 300 301 300 300 301 301 305 310 310 311 312 309 310 309 307 307 306 307 307 307 310 311 312 314 315 316 316 316 316 316 317 317 317 317 317 317 319 319 318 319 319 318 319 319 319 320 320 319 320 321 322 325 328 331 332 335 335 335 339 340 341 348 349 348 348
302 302 303 304 304 303 302 301 300 300 302 303 304 304 303 303 304 304 305 304 300 300 300 300 300 301 300 300 304 309 309 308 309 309 309 310 310 308 306 306 306 306 308 310 311 312 313 315 316 316 316 316 316 316 317 316 316 317 316 318 319 318 318 318 318 319 319 319 319 319 319 320 321 321 324 328 330 331 335 333 334 338 338 340 347 349 348 347
302 302 302 303 303 303 302 302 300 300 303 304 304 304 303 303 303 303 304 303 301 300 300 300 300 300 299 300 306 311 309 309 309 308 309 310 311 310 307 309 307 306 310 310 310 312 313 314 315 315 315 316 316 316 317 316 316 317 317 317 318 318 318 317 318 318 319 319 319 319 319 320 320 320 323 327 329 331 334 332 333 336 336 340 346 349 348 347
302 302 302 302 302 302 302 302 300 300 302 304 304 304 303 303 303 303 303 302 300 299 300 299 299 299 300 305 309 310 308 308 309 311 311 308 310 311 309 312 311 309 311 311 311 312 312 314 315 315 315 315 316 315 316 316 316 318 318 317 317 317 318 317 318 318 319 319 319 319 319 320 319 319 321 325 327 329 333 333 333 333 336 341 346 349 348 348
301 302 302 302 302 302 301 301 301 300 301 303 303 303 303 303 302 302 302 301 299 299 299 299 299 299 302 308 311 309 308 308 311 314 312 308 310 313 313 314 313 311 311 311 311 311 312 313 314 315 314 315 315 315 316 316 317 318 318 317 316 317 317 317 318 319 319 319 319 319 319 320 319 319 320 324 325 327 331 333 333 334 339 344 347 348 348 347
301 302 302 302 302 301 300 301 301 301 301 302 302 302 302 302 301 301 302 301 300 299 298 299 298 298 303 309 310 308 309 309 311 313 312 312 314 316 316 315 314 312 312 311 311 312 313 313 313 314 314 314 314 315 316 316 317 317 317 317 316 317 317 318 318 318 319 319 319 319 318 318 318 319 321 323 324 327 330 331 334 337 341 343 345 348 348 347
301 302 302 302 302 301 300 301 301 302 302 302 302 302 301 301 300 301 302 301 300 300 298 299 298 301 306 309 307 307 307 308 309 309 310 312 313 314 314 313 313 313 312 312 312 312 312 313 313 314 314 314 315 314 315 316 316 316 316 316 316 316 315 317 319 318 319 319 319 319 315 316 318 320 321 322 324 327 329 330 334 336 339 340 342 345 347 347
300 301 301 302 302 301 300 300 301 302 302 302 302 301 301 300 300 300 301 301 301 300 299 298 298 303 308 309 306 306 307 306 306 306 307 309 310 312 313 312 313 313 313 312 313 312 312 313 313 313 314 314 315 315 315 316 315 315 315 315 315 314 314 317 318 318 319 318 320 318 314 316 319 320 323 323 323 325 327 329 332 336 338 338 340 343 345 346
299 300 301 302 302 300 300 301 301 302 302 301 301 300 300 299 299 300 300 300 301 299 298 299 300 305 310 309 307 306 306 306 305 305 306 307 308 309 311 313 313 314 314 313 313 313 312 312 313 314 314 314 314 315 315 315 315 315 313 313 314 313 315 317 318 318 318 318 319 317 315 318 319 320 324 324 323 324 326 327 331 336 336 335 339 340 342 345
299 300 301 301 300 300 300 301 301 302 302 301 301 300 298 299 299 299 299 299 300 298 299 302 305 307 310 309 309 308 307 306 305 305 305 306 307 307 310 312 313 314 314 314 314 314 313 313 313 313 314 313 313 314 315 314 314 315 313 312 313 313 315 316 317 319 319 318 319 317 316 319 320 321 323 324 323 324 325 326 329 333 333 334 337 337 338 342
299 300 300 300 300 300 300 301 301 302 302 301 300 299 298 299 299 298 298 298 299 299 300 305 308 308 309 307 308 308 308 308 306 306 306 306 307 308 310 312 313 314 314 314 314 314 314 313 313 312 313 313 313 314 314 312 312 314 314 313 314 313 314 315 316 319 319 318 318 317 318 320 321 322 324 324 324 324 325 325 328 333 335 334 335 334 334 340
299 299 300 300 300 300 300 301 301 301 301 300 299 299 299 299 299 300 300 298 301 303 303 307 308 309 309 307 308 309 308 308 308 308 307 307 307 308 311 313 314 314 314 314 314 314 313 313 313 312 313 313 314 314 313 312 313 314 313 313 314 314 314 315 316 318 319 318 318 317 318 320 320 321 323 324 324 325 325 325 328 335 338 337 334 333 332 335
299 299 300 300 300 300 301 301 301 301 301 299 300 301 302 301 302 304 304 302 305 306 306 307 307 308 310 308 309 309 309 309 308 308 308 307 307 308 312 314 314 314 314 313 313 314 313 313 313 312 313 313 314 314 313 314 315 315 315 314 314 313 314 317 317 318 318 318 318 317 318 321 321 321 323 324 325 326 325 326 327 332 337 339 334 333 334 336
299 299 299 300 300 300 300 301 301 301 300 299 301 303 305 306 306 307 307 305 306 306 306 308 307 307 308 309 309 308 309 309 309 309 308 308 307 308 312 314 315 314 314 313 312 313 313 313 312 312 313 314 315 315 315 315 316 317 316 315 315 314 314 317 318 318 319 318 317 318 319 320 322 322 323 324 326 327 326 328 328 329 334 337 333 332 338 339
299 298 299 300 300 300 300 301 301 301 300 300 301 303 306 308 308 308 309 307 306 305 305 307 307 308 307 308 309 309 309 309 309 309 308 308 307 308 312 314 315 314 314 314 313 313 313 312 312 313 314 315 315 316 316 316 317 317 316 314 314 315 315 317 319 318 318 318 317 318 319 320 323 323 324 324 324 326 328 330 329 327 329 332 331 333 338 340
299 299 298 298 299 300 301 301 301 300 300 300 301 303 305 306 307 307 308 309 308 307 306 306 306 308 308 307 308 308 309 309 308 309 309 308 307 309 312 314 314 314 314 314 313 313 313 312 313 314 315 315 316 316 316 317 317 317 317 315 314 315 316 317 318 318 318 317 317 318 318 320 324 324 325 324 324 328 330 330 329 328 328 329 329 333 336 339
299 299 298 298 298 299 301 301 300 299 300 301 302 304 304 305 306 306 307 307 307 308 308 307 305 306 307 307 307 307 308 309 309 310 310 308 308 310 313 314 314 314 313 313 313 312 312 313 313 315 315 314 315 316 316 317 317 317 317 314 313 315 315 314 316 317 318 318 318 319 317 320 325 324 325 326 327 329 328 328 329 330 332 333 334 336 336 339
299 299 298 298 297 298 300 299 299 299 301 302 303 304 304 305 305 306 306 307 307 307 308 309 307 305 306 306 306 307 308 309 309 311 311 309 309 310 312 314 314 314 314 314 314 313 313 314 314 314 314 314 315 316 316 316 317 317 317 315 314 315 315 315 316 317 317 318 319 319 316 318 324 323 324 327 328 327 327 328 330 332 337 338 339 338 336 340
299 298 298 298 298 299 299 299 301 302 303 303 303 304 304 305 305 306 307 308 308 309 308 309 309 307 306 305 305 306 307 308 308 310 311 309 309 310 312 314 314 314 314 314 314 314 314 315 314 313 313 314 315 316 316 316 316 316 317 316 315 316 317 317 317 316 315 314 318 319 314 315 322 322 322 326 326 326 327 329 331 332 335 337 339 338 338 341
299 298 298 298 299 299 298 301 304 304 303 304 304 304 304 305 306 305 307 309 309 310 308 309 309 308 308 306 306 307 306 307 307 309 311 310 309 311 313 315 314 314 315 315 314 314 314 315 314 313 313 313 314 315 316 317 316 314 315 317 317 317 317 317 317 315 313 313 317 320 315 315 319 320 322 325 325 328 329 330 332 332 334 336 337 339 339 340
299 298 298 298 299 299 300 303 304 303 304 304 304 305 305 306 306 306 309 309 309 310 309 309 308 308 308 307 307 307 306 307 307 308 311 311 309 311 313 314 315 314 316 316 314 314 315 315 314 313 313 313 313 315 317 317 315 314 316 316 316 317 317 317 316 315 314 315 317 319 316 315 317 320 324 325 326 329 331 331 332 334 335 336 336 338 338 338
299 298 297 299 300 300 301 303 302 302 304 304 304 305 305 306 306 307 310 310 310 310 310 309 309 308 308 308 308 307 307 308 307 307 310 311 310 311 313 314 314 314 315 315 313 314 314 315 314 313 314 314 315 316 317 315 314 315 317 316 316 317 317 317 316 315 316 316 314 316 316 314 316 322 326 325 326 329 330 330 332 335 335 335 336 336 336 336
299 298 297 298 299 299 300 301 301 302 302 303 304 305 305 305 306 308 310 310 310 310 310 309 309 309 309 309 309 308 308 309 308 307 310 311 311 311 313 315 315 314 314 315 314 314 314 314 315 314 314 315 315 315 315 314 314 316 317 316 317 317 317 318 316 314 315 315 313 315 316 313 316 324 326 324 327 329 330 331 332 334 334 334 334 334 334 334
298 297 297 298 299 300 301 302 302 301 302 302 303 304 305 305 307 309 310 311 311 310 310 309 309 309 310 309 309 308 307 309 310 308 310 311 311 311 313 314 315 314 314 315 314 314 314 315 316 316 315 315 314 315 316 315 315 317 317 317 316 316 317 316 316 314 313 313 313 315 317 313 318 326 326 324 327 329 330 332 332 333 332 332 332 332 332 332
298 297 297 298 300 301 301 302 302 302 301 302 303 305 306 307 308 309 310 311 310 311 310 309 309 309 310 309 308 308 307 309 311 309 309 311 310 311 313 314 314 314 314 314 314 314 314 315 315 316 315 315 315 315 316 316 315 316 317 315 314 314 314 314 314 314 312 312 312 315 317 314 316 322 325 325 328 329 329 331 331 331 330 330 329 329 329 329
297 297 297 298 299 300 301 302 303 302 302 302 304 305 306 308 309 309 310 309 310 311 310 309 310 309 310 310 308 308 307 309 311 309 309 310 310 311 312 313 314 314 313 313 313 314 314 315 315 315 315 315 315 313 314 315 315 315 316 314 313 312 313 313 313 313 312 313 313 316 317 313 315 321 326 329 330 329 330 331 330 329 328 327 327 327 327 327
297 297 297 298 299 300 301 301 302 302 302 303 304 306 307 308 310 309 309 309 310 312 311 311 311 309 309 310 309 308 307 309 311 310 310 310 310 310 311 313 314 314 314 314 313 312 313 315 314 314 315 315 315 313 313 314 314 315 314 313 313 312 313 314 313 313 313 313 314 316 315 316 323 330 331 331 331 331 332 330 328 327 326 326 325 325 325 325
297 298 298 298 299 300 301 301 301 301 302 303 305 306 308 309 310 309 309 309 311 313 312 312 311 310 310 309 310 309 307 309 311 311 311 311 311 311 311 313 313 314 315 314 313 312 312 314 315 314 314 315 315 314 314 315 314 315 315 314 313 312 313 313 313 313 313 313 314 314 314 319 328 332 331 332 331 330 329 328 327 326 325 325 324 324 324 324
297 298 298 299 300 301 301 301 301 301 301 303 305 307 308 309 310 309 310 310 311 312 312 311 311 311 310 309 310 310 308 309 311 311 312 311 311 311 311 312 313 314 314 314 314 312 311 313 315 315 315 315 315 315 316 315 313 314 314 313 313 313 314 313 313 315 314 313 314 314 321 325 328 329 330 331 330 328 328 327 326 325 324 324 323 324 324 323
298 299 300 300 301 301 301 301 301 301 302 304 306 307 308 309 309 310 311 311 311 312 311 311 311 311 311 310 309 310 309 310 311 311 312 311 311 312 312 312 313 314 314 314 314 313 312 313 314 315 315 315 316 316 316 314 313 313 312 312 313 315 316 313 314 316 315 314 314 316 327 330 328 329 330 329 328 328 327 327 326 325 324 323 323 323 322 322
299 300 301 301 302 302 302 301 301 301 302 305 306 307 307 307 309 309 311 311 311 310 310 311 311 311 311 310 309 309 309 309 311 311 311 311 311 312 312 312 314 313 314 315 314 314 314 313 314 314 314 315 316 316 315 315 315 313 311 312 314 315 316 313 313 315 313 314 314 315 327 332 329 330 331 329 329 328 326 326 326 324 323 322 322 321 321 321
300 300 301 302 302 302 302 302 302 302 304 305 306 307 307 307 309 309 310 310 310 310 310 311 311 311 312 311 309 309 309 309 311 311 311 311 311 312 312 313 314 314 315 315 314 315 314 313 314 314 314 315 315 314 314 315 315 314 314 315 314 312 313 313 313 314 313 315 315 314 322 328 326 327 330 330 329 328 327 326 324 323 323 321 321 320 320 321
300 301 303 304 303 303 303 302 302 303 304 305 306 307 307 307 309 309 309 310 309 309 310 311 311 312 312 312 310 309 309 310 311 311 311 311 311 313 312 313 314 314 315 315 314 315 315 313 313 314 314 314 314 313 313 313 314 315 315 315 314 313 313 314 314 314 314 314 316 316 317 320 322 326 330 330 329 328 327 325 323 323 323 321 321 321 321 321
301 302 305 306 304 304 304 302 302 303 304 305 306 306 307 307 309 309 309 309 309 309 310 311 311 312 313 312 311 310 309 310 313 312 312 312 312 312 312 313 313 313 315 315 314 315 315 314 313 314 314 313 313 313 313 314 313 313 314 312 313 314 314 315 315 314 314 313 315 317 316 317 324 328 329 330 329 327 326 325 323 323 322 321 320 321 321 320
302 303 306 307 305 304 303 302 303 304 303 304 305 306 307 308 308 309 309 308 309 309 309 310 311 311 312 312 312 312 309 310 313 313 312 312 312 312 312 313 314 314 314 314 314 315 314 314 314 313 313 311 312 313 314 315 314 314 314 313 313 314 314 315 315 314 314 313 314 315 316 323 328 328 328 330 329 327 326 325 323 323 322 320 320 320 320 319
302 304 306 306 306 305 303 303 304 304 303 304 305 306 307 308 307 308 309 308 308 308 308 309 309 310 311 312 313 312 309 311 312 313 313 312 313 313 313 314 314 314 314 314 314 316 315 315 314 313 313 313 314 314 315 316 315 315 315 315 315 315 314 313 314 315 314 313 314 313 316 326 329 327 328 330 328 327 325 324 323 322 321 320 320 319 318 318
303 305 305 305 306 304 303 303 303 303 303 304 305 306 307 308 308 308 307 307 308 308 309 309 310 311 312 312 313 312 311 312 312 313 314 313 314 315 314 314 314 313 314 314 314 315 315 315 314 313 313 313 314 314 314 315 316 315 314 315 315 315 315 314 314 316 314 313 314 312 317 327 329 328 329 329 328 327 325 324 323 322 321 319 318 318 317 317
304 305 305 305 304 304 304 304 303 303 304 305 306 306 307 308 307 307 306 306 307 308 309 311 311 312 312 312 312 313 312 312 313 314 315 314 315 316 314 314 314 313 313 314 315 315 315 314 314 313 313 313 313 313 313 314 315 315 315 315 315 315 316 316 316 316 314 314 314 313 319 328 328 329 330 328 327 327 325 324 322 321 320 318 317 317 316 316
304 304 305 305 304 304 305 306 306 306 306 306 306 306 307 307 306 306 305 306 306 307 309 311 312 312 313 312 312 313 313 312 313 314 314 315 317 316 314 314 314 314 314 315 315 314 314 314 314 313 313 313 313 313 312 314 315 315 315 314 315 316 315 315 315 314 314 315 313 314 322 328 329 328 328 326 325 325 324 323 321 320 319 317 317 316 316 316
304 305 305 305 304 305 306 307 308 308 307 306 306 307 306 306 306 305 305 306 307 307 308 310 311 311 312 312 312 313 312 312 314 314 315 317 318 316 314 315 314 314 315 316 316 315 315 315 316 317 316 314 313 314 314 315 315 314 315 314 315 316 316 316 314 313 315 315 312 317 327 329 328 329 328 326 324 322 322 321 320 319 318 317 316 316 315 315
304 305 306 306 305 305 306 306 307 308 308 307 306 307 307 306 306 306 306 307 307 308 309 309 310 311 312 313 313 313 312 312 315 315 316 318 318 317 316 315 314 316 316 315 315 315 315 316 319 322 321 318 316 316 315 316 315 314 315 315 315 316 317 316 314 315 316 314 315 324 329 328 328 329 326 323 322 320 319 319 319 318 317 316 316 315 315 314
304 306 307 307 306 305 305 305 306 307 308 308 307 307 308 306 305 306 307 308 308 309 310 310 311 311 312 313 313 314 314 314 314 315 317 318 318 318 317 315 314 318 317 314 315 316 315 317 320 322 321 319 319 319 317 316 315 315 315 316 316 317 318 316 316 317 318 315 320 328 329 327 328 326 323 321 320 318 318 318 317 317 316 315 315 315 315 314
305 306 306 307 307 307 306 306 307 307 308 309 308 308 309 308 306 307 308 309 310 310 310 311 311 311 312 313 313 314 315 315 315 317 319 318 318 318 317 315 314 317 316 314 316 316 314 316 320 321 320 320 320 319 318 317 317 316 316 317 318 317 317 317 319 321 322 322 326 329 328 326 325 322 320 319 318 317 316 315 315 315 315 315 315 315 315 314
305 305 306 307 307 308 309 308 307 307 308 309 308 308 309 309 309 309 309 310 311 311 311 311 312 312 313 314 314 314 315 316 317 318 320 319 318 318 318 316 315 316 315 314 317 317 315 318 322 321 321 322 321 320 320 320 320 320 319 319 319 318 318 320 323 324 326 328 329 327 325 323 320 318 316 315 314 314 314 314 314 314 314 315 315 315 314 314
304 304 304 306 307 307 309 310 308 307 308 308 308 309 310 309 310 311 311 311 312 312 312 312 313 314 315 315 315 316 316 316 317 318 320 321 320 319 318 317 317 316 314 315 318 318 316 319 322 319 319 323 323 321 320 320 320 323 325 324 323 323 323 325 326 326 327 329 328 326 324 319 315 314 313 312 313 313 313 313 313 313 313 314 314 314 314 313
303 303 304 306 307 307 308 309 308 308 309 308 309 310 310 311 311 312 311 311 312 313 313 313 314 316 316 316 316 317 317 317 317 319 319 318 320 320 319 318 317 315 315 316 317 317 316 319 320 317 317 321 324 322 321 320 320 323 324 324 325 325 325 326 326 325 326 327 327 324 322 315 312 313 312 311 312 312 311 312 311 312 313 313 313 313 313 313
Wind_Speed
12 12 11 12 13 13 14 13 13 13 12 12 12 12 12 12 12 12 11 11 11 10 10 10 9 10 10 11 12 12 12 14 14 14 18 18 14 13 12 8 5 9 11 6 7 12 13 14 15 14 13 13 14 14 13 12 12 9 7 7 7 8 8 7 6 6 3 5 5 3 6 7 7 14 9 10 11 10 14 8 7 7 8 13 18 21 22 20
13 13 11 11 12 13 14 13 12 12 11 12 12 12 12 12 11 11 10 10 11 10 10 10 9 9 9 10 10 11 13 13 15 18 21 20 18 15 12 12 10 8 10 9 10 14 14 15 15 14 14 13 14 14 12 12 13 10 7 7 8 9 7 5 4 1 1 4 3 2 5 5 3 11 12 13 14 13 13 12 10 9 14 16 18 20 20 19
14 13 12 12 12 13 14 13 13 12 11 12 12 11 11 10 9 9 10 10 10 10 10 10 9 9 9 9 9 10 11 12 17 19 19 19 19 16 14 13 13 11 10 10 12 14 13 13 14 14 15 13 13 13 11 12 13 12 10 7 8 11 6 2 4 3 2 2 1 1 3 5 4 6 11 13 13 14 13 13 14 12 16 19 19 20 19 18
14 13 13 14 14 15 15 15 14 13 12 12 12 11 11 11 9 9 9 10 10 10 10 10 8 8 9 8 7 7 8 12 15 13 15 18 17 15 16 15 14 14 12 11 12 14 13 12 13 15 15 13 14 13 11 11 11 11 11 8 9 8 6 4 6 7 1 2 3 0 4 7 7 6 9 12 11 12 14 17 18 15 17 19 20 19 19 18
14 14 14 14 15 15 16 18 17 17 15 13 13 12 11 11 10 9 9 9 10 10 10 9 7 7 8 6 6 3 4 7 4 12 15 15 13 12 15 16 16 16 15 13 13 14 14 13 14 16 15 12 13 12 11 14 12 10 11 14 13 5 4 4 6 6 3 3 4 3 5 2 5 9 10 12 9 7 10 13 15 18 17 16 19 19 19 19
15 15 14 15 16 16 17 18 18 18 15 13 13 12 11 11 11 10 9 10 10 10 10 9 7 6 7 5 4 2 5 5 5 6 10 8 10 11 11 14 17 18 16 15 15 15 16 16 15 16 15 12 12 11 12 16 14 9 9 14 17 10 7 5 4 5 5 6 6 3 3 1 6 10 12 14 6 3 3 10 15 16 12 11 17 19 19 19
16 15 14 15 16 17 19 19 19 17 14 12 12 13 13 12 12 11 10 10 10 10 9 9 7 6 6 5 4 6 13 14 3 5 8 6 9 11 10 10 15 18 19 18 18 18 18 19 18 17 14 11 12 12 12 15 15 12 9 12 15 14 12 7 4 6 8 8 5 4 4 5 10 8 11 13 3 5 5 11 15 14 10 8 14 18 18 18
16 16 15 15 15 18 20 21 19 15 10 10 12 14 14 13 13 11 11 11 11 11 10 9 6 5 6 5 5 9 18 22 14 10 11 8 8 9 7 7 10 15 21 22 21 20 19 20 20 18 13 11 12 12 13 14 14 14 12 11 10 12 14 11 9 8 10 9 6 6 6 8 8 4 11 11 5 8 9 11 13 15 13 11 13 17 18 17
16 16 16 16 16 18 20 21 19 13 10 10 12 14 14 14 14 13 12 11 11 11 10 9 6 6 6 5 6 11 15 17 15 11 12 10 8 9 7 6 8 12 20 23 22 21 20 21 22 20 15 14 14 12 14 12 10 13 16 15 10 10 12 11 12 11 11 10 8 8 8 8 6 4 10 11 8 10 12 11 12 14 15 15 15 17 17 16
16 17 17 18 18 19 20 20 18 13 11 12 13 14 15 14 15 14 12 11 11 11 10 9 7 7 6 5 8 11 9 9 9 9 15 15 12 12 10 9 9 12 19 22 23 23 22 20 20 21 18 15 14 12 14 12 8 9 14 18 14 12 12 11 12 14 13 11 9 8 8 8 8 9 9 9 10 11 14 14 15 16 16 18 17 16 16 16
17 17 17 18 19 19 19 19 17 13 12 13 14 15 16 15 16 15 12 12 12 11 10 10 8 8 7 7 13 10 5 7 6 5 10 13 12 12 11 12 12 15 18 21 23 24 23 21 18 19 16 12 12 12 13 15 12 7 8 13 15 15 13 12 12 14 13 10 12 11 9 9 10 12 10 12 14 13 16 16 17 18 17 17 16 16 16 15
17 16 16 17 19 20 19 17 15 14 14 15 16 17 17 17 17 14 11 11 11 11 11 10 8 8 5 11 19 16 6 5 5 4 5 6 8 11 12 13 14 16 18 20 23 23 23 21 19 18 14 10 11 10 10 16 16 12 9 9 13 15 14 14 14 14 12 11 15 13 9 9 11 13 11 15 16 14 15 15 15 15 15 15 15 15 14 14
17 17 16 17 19 20 18 15 14 14 15 16 17 17 18 19 18 15 12 11 11 12 11 10 8 5 7 14 21 19 13 11 10 9 8 7 6 9 11 13 14 16 17 19 20 21 21 20 19 20 17 12 11 7 6 13 17 13 11 9 10 12 12 16 16 16 15 13 16 14 9 9 13 15 12 15 16 15 14 14 15 14 14 13 12 13 13 13
17 17 17 17 18 19 16 13 13 15 16 17 18 18 18 18 18 15 13 12 11 12 10 9 6 4 10 17 18 18 18 17 17 17 16 12 10 9 9 11 14 15 16 17 17 18 20 20 18 18 18 16 14 9 5 10 13 11 11 8 9 9 10 17 18 18 17 13 15 14 9 9 15 17 14 15 16 15 14 14 15 14 13 11 11 12 12 12
18 18 17 17 18 18 15 13 13 15 16 18 19 20 18 16 16 14 14 13 11 12 9 6 5 4 12 18 17 17 18 19 20 20 19 16 14 13 10 10 12 14 14 15 14 16 18 18 17 16 17 18 17 11 6 9 10 9 10 9 10 9 8 17 20 20 17 13 16 15 9 9 17 20 18 17 16 15 15 15 15 14 13 11 11 12 11 11
19 17 16 18 18 16 14 12 13 15 16 19 19 19 16 14 13 13 14 13 12 11 6 5 6 7 10 11 10 13 16 21 22 20 19 19 17 15 13 11 12 13 14 13 12 13 14 15 16 16 16 16 14 10 7 9 9 9 10 9 10 11 9 13 19 21 19 14 15 16 12 9 14 19 20 18 16 16 15 15 17 16 15 13 12 12 10 10
19 16 15 16 16 14 13 12 14 15 17 20 18 15 12 10 10 10 12 12 10 6 6 6 6 9 12 8 8 13 17 19 17 17 19 20 18 15 13 14 15 15 15 14 11 13 15 15 14 14 14 12 11 10 9 10 9 9 10 9 10 14 12 11 17 20 22 17 15 19 17 5 12 17 18 17 15 15 13 13 16 15 13 15 15 14 10 9
19 16 15 14 13 12 12 12 14 16 19 19 11 8 7 6 5 5 8 8 6 2 5 9 7 7 12 16 16 14 16 19 15 15 18 19 19 16 14 16 16 17 17 15 14 16 16 16 13 10 11 11 11 12 11 10 11 10 11 9 10 14 14 12 15 17 22 19 15 20 18 5 13 14 15 17 16 15 14 12 14 15 12 13 14 14 14 11
19 18 16 15 13 12 12 13 15 16 19 16 7 7 7 4 3 5 8 8 12 8 6 13 19 10 4 11 21 11 8 14 14 15 17 20 20 17 16 16 17 20 18 13 14 19 16 13 13 10 11 13 14 14 13 12 13 13 12 12 11 12 13 11 14 18 21 17 14 19 17 11 14 12 13 15 14 14 15 11 12 16 14 12 12 12 12 9
22 20 17 16 14 13 13 13 15 17 18 14 8 7 6 6 6 8 14 16 21 19 13 15 26 23 10 2 12 11 7 10 13 15 18 20 21 20 19 18 19 20 16 12 13 18 16 11 12 13 13 16 17 17 18 17 14 13 13 13 13 10 12 12 13 19 21 15 14 18 19 15 14 11 11 13 15 13 12 9 9 13 14 13 14 12 12 14
23 21 17 16 15 14 14 14 15 17 18 14 8 8 9 8 5 4 11 19 26 26 24 18 18 24 21 6 4 7 9 12 15 17 18 22 23 21 20 20 18 14 15 16 14 15 16 12 13 17 16 17 18 17 19 19 14 12 11 13 12 9 12 11 10 16 20 15 13 17 20 14 13 9 10 11 15 12 8 8 10 13 14 15 16 13 16 17
23 19 17 16 16 15 14 14 15 18 18 12 8 12 13 9 7 6 5 12 21 25 28 26 21 22 22 16 8 5 9 14 17 18 20 24 25 21 20 20 15 12 15 17 13 12 13 13 16 19 17 16 17 17 18 18 14 10 8 11 11 9 11 10 10 13 16 12 11 17 19 12 12 8 8 8 10 10 7 8 9 10 11 14 15 13 15 14
21 18 16 17 17 17 16 16 17 17 15 10 11 15 13 10 8 8 9 11 16 21 26 26 26 26 24 23 16 10 12 13 16 20 23 25 27 24 20 18 15 14 16 16 14 12 11 13 17 18 17 18 17 17 18 16 11 9 9 10 9 11 13 10 12 14 15 12 13 17 16 10 11 7 6 7 7 9 9 9 9 8 6 6 8 10 14 12
19 18 17 15 15 17 17 15 14 13 12 12 14 15 12 9 7 8 10 12 13 16 23 26 27 28 27 24 19 17 16 15 15 20 25 26 27 25 19 18 17 14 15 18 18 14 11 13 18 18 17 19 17 17 19 13 9 11 12 11 10 14 15 10 12 12 12 14 16 14 13 9 10 11 8 7 8 10 11 10 10 11 9 10 10 12 14 12
18 19 15 11 11 13 13 12 9 6 8 11 13 13 11 8 5 6 8 9 11 13 20 24 23 25 27 23 19 20 18 16 18 18 25 28 27 22 18 19 17 13 16 20 18 13 12 13 18 19 18 19 18 16 18 14 9 11 14 13 13 14 14 12 15 12 10 12 13 11 11 9 11 15 12 9 9 9 10 10 11 13 12 11 12 14 15 14
18 17 11 6 8 8 7 7 4 3 7 9 8 6 7 6 4 5 5 6 7 9 15 19 18 18 24 23 21 20 15 16 21 18 22 28 28 22 16 15 14 15 17 17 12 8 10 12 16 19 19 21 19 15 17 16 10 9 12 15 16 15 15 15 17 14 8 10 12 12 11 7 11 15 14 12 10 10 11 10 11 12 11 11 12 14 16 15
17 16 9 6 7 5 5 5 3 4 6 4 3 4 5 4 3 5 4 5 5 8 13 16 14 13 21 25 25 19 10 13 20 21 20 24 29 25 17 14 13 15 16 12 9 7 11 15 17 19 20 18 16 13 16 18 12 7 12 16 16 15 17 16 15 12 8 9 13 16 14 7 8 12 14 15 13 12 12 10 11 12 12 13 13 14 16 14
17 15 10 10 9 7 9 10 8 7 6 1 3 5 3 2 5 5 4 4 3 8 11 13 11 9 16 24 29 23 14 15 18 20 22 23 27 25 18 17 16 16 18 13 10 10 13 16 16 18 16 13 13 14 16 18 15 9 13 16 12 12 15 16 14 11 10 10 11 15 16 9 6 10 12 15 15 14 14 12 11 13 14 14 15 15 15 14
17 16 12 13 11 8 8 10 11 11 7 4 5 5 3 5 5 4 5 4 3 5 7 11 11 10 16 21 26 26 21 17 16 20 24 23 27 24 15 18 20 17 20 17 12 11 14 17 17 16 13 12 14 16 17 18 15 12 13 16 12 10 11 12 11 10 10 11 11 14 16 11 6 10 11 13 14 13 13 12 11 15 16 15 16 16 15 15
17 15 10 11 9 7 7 10 12 13 9 7 7 5 5 7 5 4 6 4 2 3 5 9 11 15 19 18 19 24 23 18 17 24 26 23 28 25 18 21 20 14 16 17 15 14 13 14 14 14 14 13 15 16 16 18 19 14 11 14 13 10 9 8 9 9 9 11 11 14 17 13 6 8 10 11 13 14 13 12 13 15 17 16 16 16 15 14
17 15 10 9 7 6 6 8 8 8 9 8 7 7 8 6 5 6 6 4 2 2 3 7 13 16 19 17 15 19 21 18 17 23 21 19 23 22 17 17 14 12 14 14 14 16 15 13 11 13 18 17 15 16 15 18 21 14 9 12 12 9 8 7 7 9 9 9 11 13 17 17 10 7 10 10 13 16 14 14 15 15 16 15 14 15 14 12
15 14 12 11 10 9 9 6 3 5 9 8 7 8 7 5 6 7 5 6 4 3 3 7 12 16 19 18 16 18 20 16 17 20 17 15 16 16 15 13 12 12 13 13 13 15 14 14 14 15 20 19 15 14 13 14 17 13 10 12 11 9 8 8 9 9 9 9 11 15 18 14 6 4 11 12 12 14 14 15 17 17 17 15 14 14 13 12
12 11 11 11 11 13 14 10 6 7 7 5 7 8 6 5 7 8 9 6 2 1 1 3 7 15 18 17 16 19 20 16 17 18 17 17 15 16 18 18 18 15 12 13 13 12 12 13 16 16 16 20 19 13 11 12 14 13 12 12 10 9 9 9 10 9 8 9 11 17 17 9 5 6 10 14 14 16 19 20 19 18 17 16 14 14 13 12
11 12 13 13 13 14 14 12 11 11 8 7 8 8 7 8 7 7 8 5 1 2 3 3 4 11 17 16 15 19 18 15 18 18 17 18 15 14 17 20 24 18 11 13 12 12 13 11 15 16 13 18 20 15 13 12 13 13 12 10 10 9 8 8 8 8 10 8 10 16 14 6 8 7 9 16 20 22 22 20 19 18 17 16 14 14 13 12
12 13 13 14 14 14 14 14 13 12 10 10 9 7 9 10 7 6 4 2 3 3 6 4 5 8 13 15 16 21 18 14 19 19 16 18 15 14 16 17 22 20 12 11 9 12 15 11 14 17 14 17 17 15 17 14 11 12 12 10 11 10 8 7 6 5 7 8 9 9 3 5 8 9 11 16 19 20 21 20 18 17 16 15 14 13 13 12
11 11 11 13 14 13 14 15 15 13 12 11 8 8 10 9 6 3 1 1 1 2 5 8 9 9 10 12 15 22 21 15 18 17 14 18 17 17 18 15 20 22 15 11 8 10 13 11 17 19 16 19 18 16 18 16 10 9 12 11 10 10 9 8 6 4 4 9 9 6 5 7 7 8 10 14 16 16 17 18 17 16 16 15 13 12 12 11
10 8 10 14 14 12 14 16 15 15 14 11 8 8 9 10 9 2 4 2 3 2 6 7 8 9 10 11 13 20 22 16 16 14 13 17 16 18 21 17 21 24 18 13 9 9 11 9 17 21 16 19 22 19 18 18 14 9 10 12 9 9 9 6 7 6 8 10 9 10 9 9 8 6 9 14 15 15 15 15 15 15 15 14 13 12 11 11
8 8 12 15 13 12 15 17 16 17 14 10 9 11 10 9 10 2 7 6 2 2 6 6 6 8 8 10 13 20 21 15 14 14 13 13 13 18 22 17 20 24 22 18 11 9 11 7 13 21 18 17 21 18 15 18 19 13 10 11 9 9 8 6 7 8 10 9 8 11 12 10 9 8 11 15 16 16 15 14 14 13 14 14 14 13 11 10
7 7 9 9 11 14 16 18 19 17 12 9 9 10 10 9 11 6 3 5 2 3 5 5 6 4 2 7 12 17 20 15 14 14 12 11 11 18 22 17 18 23 23 19 10 7 10 7 9 17 18 15 15 13 12 14 16 16 13 13 10 9 8 7 7 7 8 9 8 10 11 9 8 11 17 18 19 18 16 14 13 13 15 14 13 13 11 10
7 7 6 8 13 15 17 18 18 14 10 9 9 8 9 9 11 9 4 2 2 3 4 6 7 3 2 7 10 12 18 16 13 13 11 11 11 15 21 17 16 21 23 19 13 8 8 7 7 13 17 15 11 12 14 13 14 13 11 12 11 10 9 8 7 6 8 9 8 8 9 6 3 9 18 19 19 18 16 14 13 15 16 14 13 12 10 10
8 6 5 11 15 16 19 17 13 11 8 9 10 10 10 9 7 6 5 5 4 3 5 7 7 6 5 8 10 10 15 13 13 12 9 12 12 10 16 19 16 18 20 17 14 10 7 8 8 10 13 13 12 15 17 16 15 13 9 11 13 12 11 10 9 9 8 9 8 9 7 3 3 1 12 17 16 17 18 16 16 17 17 14 13 12 10 10
8 5 5 12 15 19 20 12 9 10 9 9 10 11 10 7 7 6 6 8 6 3 5 7 8 9 8 7 9 11 14 12 13 13 9 13 14 9 16 23 21 20 17 13 13 11 6 6 9 10 11 12 14 17 18 18 18 15 12 13 13 12 12 11 10 10 9 10 11 9 7 4 4 2 10 16 16 20 21 19 18 18 17 15 14 12 11 10
8 5 4 10 15 20 17 8 8 10 8 10 13 13 10 8 7 7 6 8 7 3 4 7 9 9 9 9 9 11 14 12 12 13 11 14 14 10 19 26 22 19 16 11 13 12 5 5 9 9 9 11 14 16 17 17 16 15 13 13 12 13 14 12 10 10 9 11 10 8 6 5 1 1 13 20 22 23 22 20 20 19 18 16 14 13 12 11
8 6 5 9 14 19 13 7 8 9 9 11 13 11 10 9 7 6 6 6 4 3 5 7 8 8 8 11 11 9 11 11 12 13 10 10 10 9 19 25 20 16 14 11 11 10 6 7 8 9 9 10 12 15 15 14 12 11 12 14 15 16 18 14 10 8 7 11 12 7 4 6 4 5 14 20 20 20 20 21 21 20 19 16 14 13 12 12
7 4 6 10 15 17 13 9 6 5 8 13 11 9 10 9 5 4 7 6 4 4 6 7 9 10 9 11 12 10 11 11 10 10 8 7 9 9 15 20 18 16 16 16 16 11 7 9 9 8 11 12 11 11 12 11 11 11 14 18 19 20 20 15 10 7 6 11 14 8 5 8 8 9 14 17 17 17 19 21 20 19 19 16 15 14 13 13
6 3 5 9 13 15 15 14 10 7 7 10 9 8 11 9 4 1 4 5 5 7 8 9 11 11 11 12 12 11 13 11 6 7 9 8 7 9 15 19 20 18 15 13 15 11 6 8 7 4 6 10 12 12 12 13 13 13 16 20 20 20 20 15 10 8 7 9 10 7 13 14 12 14 15 15 17 17 17 19 20 19 18 16 15 14 13 13
5 2 3 7 9 11 13 14 12 8 7 7 6 7 10 8 2 1 2 3 6 7 8 10 12 11 10 11 10 11 13 13 9 7 8 10 7 9 14 19 19 13 13 11 13 10 7 8 6 1 2 2 8 14 17 17 17 17 18 19 19 19 18 15 11 9 9 8 5 10 20 19 15 16 16 15 16 16 16 18 19 18 17 17 16 15 14 13
5 3 1 5 5 6 9 11 12 10 7 6 5 5 6 5 3 1 3 5 8 10 9 8 12 14 13 12 10 10 12 12 14 11 5 7 7 8 11 18 17 9 10 14 14 8 6 7 5 3 2 3 2 9 16 16 16 17 16 15 16 15 12 11 8 6 7 5 5 11 19 19 16 15 15 15 16 16 18 18 18 19 18 17 17 16 15 14
7 6 4 4 5 5 6 9 11 10 8 7 5 4 5 5 7 7 5 4 7 11 12 10 11 14 14 13 11 11 11 10 12 10 6 5 6 7 9 15 16 11 10 13 11 9 7 6 6 5 5 5 3 7 12 14 13 13 14 14 13 12 12 10 5 2 1 7 12 14 17 17 14 13 13 15 17 19 20 19 19 19 18 18 17 16 15 14
6 6 5 5 7 8 6 7 9 8 7 7 6 5 6 7 9 8 7 8 7 9 13 15 14 12 11 13 13 12 12 10 9 8 10 10 9 8 7 9 12 13 15 12 9 9 7 4 7 8 6 6 7 8 10 10 8 7 10 11 10 11 12 9 5 5 6 12 16 18 19 13 10 14 17 17 19 20 19 19 19 18 17 17 17 16 15 14
8 7 6 7 6 6 7 6 8 7 6 7 6 4 5 9 10 7 8 12 10 8 10 13 11 8 8 11 10 7 7 7 12 9 11 9 7 6 6 7 11 13 14 12 8 8 8 4 5 7 5 7 8 10 12 12 10 8 8 8 7 8 7 7 7 6 4 11 14 14 12 8 9 16 18 17 18 19 19 19 19 17 16 16 16 15 14 14
8 7 6 6 5 5 6 5 7 6 4 5 6 5 6 9 8 5 5 7 6 5 6 7 5 3 5 4 4 4 7 7 12 9 7 6 5 6 3 7 14 14 11 10 9 8 10 7 5 7 6 5 7 11 14 14 11 8 6 6 4 6 8 9 10 10 7 7 9 6 7 10 13 15 15 15 17 17 18 18 17 17 16 15 15 15 14 13
Wind_Direction
316 310 314 319 321 317 310 301 295 299 304 297 285 282 282 281 280 277 278 276 275 277 278 280 282 283 285 289 291 292 291 287 282 274 264 257 249 239 238 243 233 210 213 202 175 191 194 197 203 202 209 209 215 225 210 205 219 215 224 236 231 236 233 240 225 213 256 88 93 97 169 234 179 173 186 180 199 163 154 150 114 127 113 109 113 130 144 145
325 315 308 312 318 319 319 314 301 293 298 303 294 287 284 285 284 277 277 274 272 272 275 280 281 283 286 287 295 299 295 295 292 277 262 257 252 246 240 233 226 213 207 194 192 198 194 198 200 198 208 212 210 214 203 198 213 215 222 232 229 240 232 242 275 252 354 69 77 98 169 237 201 168 172 187 193 167 166 165 157 144 123 125 126 130 138 147
328 322 313 308 309 310 313 315 310 300 296 300 296 289 285 286 286 279 274 270 269 265 270 276 277 284 284 286 298 300 306 309 294 277 262 257 253 246 240 230 220 212 201 190 199 204 204 205 198 200 213 217 209 202 198 194 203 216 226 233 229 243 245 209 279 305 15 20 355 97 190 212 192 174 178 193 187 176 186 171 173 166 139 138 135 137 142 150
326 323 316 309 306 303 304 306 307 304 298 294 291 287 285 285 285 286 278 269 266 260 265 272 275 280 278 287 293 302 332 313 281 246 239 250 251 247 241 231 221 212 199 194 208 213 215 214 202 205 217 222 212 203 204 196 194 212 221 237 234 240 264 210 215 236 231 320 308 343 218 196 172 188 197 203 189 186 199 185 183 169 150 145 140 145 147 149
323 319 317 314 312 306 303 305 304 299 297 294 290 286 287 289 287 288 282 272 265 260 262 267 271 269 271 279 276 308 344 303 239 195 220 241 242 240 237 228 222 213 200 204 215 216 218 217 208 210 221 229 218 206 216 207 200 221 220 236 249 254 275 230 196 215 204 236 252 236 233 204 183 199 199 209 198 192 204 178 159 147 147 149 143 147 149 151
322 318 315 315 316 313 311 314 310 299 293 293 294 289 286 290 289 285 279 273 266 262 258 261 264 257 263 261 247 198 240 264 105 176 229 230 226 217 214 220 219 210 199 207 216 213 216 216 211 213 219 230 226 211 219 212 203 230 224 226 248 259 261 242 186 191 202 227 230 248 278 267 224 204 194 213 193 105 168 118 114 122 129 147 149 149 152 154
320 317 313 313 315 315 316 320 318 305 291 289 297 293 284 284 286 285 280 271 264 260 251 256 258 248 253 242 238 220 239 255 251 273 267 233 222 199 187 205 211 208 199 206 214 210 211 213 213 216 218 225 229 218 219 216 205 225 237 220 231 240 244 242 214 196 203 228 238 260 277 215 223 200 186 213 165 110 149 108 106 114 118 161 161 152 154 157
317 315 312 310 310 313 316 320 318 306 291 292 296 293 288 282 280 281 280 270 260 257 246 249 248 236 238 215 242 241 239 247 244 266 273 244 227 204 193 205 210 204 199 206 211 208 210 212 213 216 221 224 227 222 219 221 209 218 241 239 226 225 234 235 231 223 214 226 234 245 247 210 220 202 181 188 131 141 155 118 116 123 137 179 176 158 156 158
313 312 309 305 305 308 313 317 315 300 287 294 293 291 289 282 278 275 274 269 259 254 243 244 240 223 223 202 246 257 242 242 239 248 254 246 242 231 223 225 224 205 201 208 211 211 211 213 214 216 226 230 228 228 220 222 215 211 229 241 236 223 227 227 227 225 220 221 220 226 223 206 204 206 190 170 137 147 144 131 140 142 154 181 180 160 155 159
310 309 307 304 303 307 311 315 312 294 280 288 288 287 286 283 281 274 269 268 257 253 245 239 233 205 197 218 249 252 235 229 237 245 246 244 243 243 237 224 222 208 205 210 211 213 213 215 215 218 231 237 236 236 222 220 221 208 223 235 235 233 224 216 221 216 213 214 213 220 213 198 183 196 199 156 147 156 147 146 162 166 169 178 171 157 155 160
308 307 307 306 304 308 311 311 309 293 277 281 283 283 284 282 279 274 271 268 255 250 246 238 231 204 195 244 245 235 226 227 228 242 251 246 235 233 228 216 213 210 209 211 212 212 214 217 216 219 229 239 247 246 231 223 228 227 231 237 231 234 230 214 216 211 210 209 207 218 215 190 179 205 209 159 160 167 156 156 169 171 166 167 159 153 154 159
308 307 306 307 307 311 309 305 304 294 283 281 281 280 280 281 277 271 268 267 260 250 245 240 233 212 222 257 239 225 223 230 222 232 245 237 225 219 214 212 213 213 213 213 213 212 215 218 218 224 223 227 238 242 241 224 228 239 237 245 228 224 228 215 212 209 210 205 196 206 218 192 186 210 200 161 165 170 165 165 172 166 155 158 156 153 153 158
308 305 305 304 305 312 308 298 294 292 288 285 285 283 280 279 274 267 260 259 260 250 244 243 235 226 254 259 243 233 237 243 247 253 240 221 224 220 216 220 216 214 217 217 216 212 215 218 220 229 227 227 230 234 265 223 220 235 230 241 233 217 217 210 207 205 207 203 188 194 216 191 190 204 175 154 171 174 173 175 173 167 154 156 161 157 154 158
310 304 304 302 302 310 304 289 288 287 285 285 285 283 281 277 271 265 256 251 256 252 248 246 236 232 251 257 256 245 241 247 250 247 238 229 228 224 222 225 214 211 217 220 220 213 213 217 221 232 231 232 237 227 248 222 209 224 225 227 235 228 209 198 199 201 202 194 181 198 224 186 185 193 167 161 178 176 180 184 177 168 154 159 172 161 153 159
313 305 303 299 300 308 298 282 286 287 287 287 285 282 280 276 270 263 254 249 252 251 248 247 232 227 255 267 272 252 234 238 241 236 230 226 226 224 221 216 204 203 209 213 219 214 210 211 214 228 225 225 238 233 223 224 208 211 220 217 223 238 213 187 189 198 197 184 182 204 230 195 186 182 168 171 180 182 190 188 178 165 157 172 179 159 152 161
313 304 299 296 298 304 291 278 285 289 290 287 286 286 282 275 267 260 257 251 249 248 236 252 240 230 261 276 267 244 224 229 237 232 223 220 221 221 215 202 194 195 198 201 208 206 199 202 210 222 222 216 228 234 222 219 209 204 219 222 209 224 226 182 181 192 194 187 183 203 232 216 179 166 164 173 181 190 196 189 180 171 169 183 178 157 160 163
314 306 300 297 298 298 286 280 286 289 290 288 291 299 290 274 266 259 257 248 246 244 204 230 240 229 252 263 246 236 220 222 232 222 215 213 212 212 203 190 189 188 186 189 194 192 189 199 209 216 223 217 210 219 222 211 205 201 210 226 211 215 227 181 171 185 193 196 183 202 234 220 140 151 164 174 183 198 205 191 174 161 164 182 179 163 169 175
315 310 305 302 299 293 285 284 289 290 291 290 299 327 314 277 272 260 253 230 204 227 228 229 227 230 244 235 232 235 220 215 211 204 205 203 202 204 195 187 186 181 181 185 189 190 188 197 205 207 215 216 206 209 221 212 204 203 200 217 213 210 220 184 168 183 193 199 185 200 224 159 131 156 168 178 188 199 209 198 166 154 169 188 181 168 176 182
314 310 304 302 298 289 286 288 290 290 291 292 304 346 338 305 300 249 229 194 175 187 225 202 195 209 284 221 216 213 195 195 191 195 197 191 193 197 194 189 186 182 183 184 187 191 187 191 204 210 208 207 207 207 219 222 211 207 199 212 217 204 214 192 173 186 190 195 188 199 211 163 146 164 164 177 189 200 208 198 171 164 178 194 186 174 167 141
314 309 298 296 296 285 283 290 292 291 292 298 304 314 291 237 237 216 202 202 202 212 234 200 190 216 263 227 199 202 188 185 191 199 194 185 185 191 193 189 187 188 193 190 184 188 189 197 205 210 210 205 208 210 219 228 223 215 200 209 223 207 210 203 181 183 183 194 192 196 208 174 146 154 152 166 182 202 208 182 182 178 176 196 199 175 128 105
314 309 295 289 289 281 280 289 292 291 293 297 293 273 250 237 262 231 197 211 219 226 243 234 204 226 246 246 181 204 214 206 204 203 192 183 182 187 190 187 189 192 200 197 185 185 193 210 211 208 214 207 207 211 218 228 234 235 211 203 217 208 209 198 164 173 180 198 197 194 209 180 139 146 143 159 174 185 196 172 194 199 182 192 198 167 119 107
314 309 296 285 281 276 276 282 284 289 293 291 269 251 254 277 311 318 272 243 237 232 238 242 236 239 246 246 236 227 227 211 200 197 185 181 184 189 184 186 196 191 195 198 186 186 199 216 213 206 212 211 209 210 216 226 232 241 219 203 211 203 204 177 144 176 187 203 196 190 210 180 138 149 141 159 169 153 170 176 187 206 192 190 193 168 127 116
311 306 299 288 279 270 267 277 281 285 287 270 254 249 254 279 293 299 291 276 266 241 229 231 234 235 237 237 229 220 228 214 197 191 181 181 188 192 186 186 199 193 192 199 192 193 202 212 212 205 209 212 209 205 212 222 220 227 217 207 208 197 204 181 156 185 191 207 206 188 204 185 146 159 147 154 163 148 162 169 167 185 179 157 159 140 123 129
308 304 301 292 283 270 264 281 290 286 277 258 254 250 250 272 289 306 289 269 274 253 229 221 221 227 228 227 219 213 220 220 211 192 181 186 189 192 195 191 197 199 196 202 201 203 208 203 204 206 208 210 207 201 208 215 205 219 223 215 211 202 207 183 155 179 186 212 225 195 197 200 168 182 180 158 170 166 160 157 157 161 143 105 96 108 117 137
305 304 302 294 291 275 267 294 316 303 269 252 256 252 247 258 272 305 294 266 260 243 225 215 213 223 223 218 212 208 214 222 223 201 182 189 192 189 197 195 199 205 197 202 206 210 216 200 194 203 204 205 209 204 203 207 199 213 224 230 229 209 198 174 165 179 183 205 224 205 199 202 187 194 188 171 179 173 158 158 160 157 149 121 101 103 114 127
304 303 298 283 288 282 274 300 324 281 258 247 250 240 220 228 267 297 282 268 256 214 198 195 197 208 207 203 197 195 212 218 219 210 184 190 197 193 195 193 201 210 196 199 210 213 220 202 191 202 202 201 210 207 198 202 210 212 210 224 236 218 196 183 179 185 191 196 196 201 211 199 188 195 184 174 178 166 155 154 151 145 137 122 110 106 110 115
302 299 282 259 278 283 267 277 278 263 264 237 195 191 189 201 279 291 254 254 243 178 166 173 176 185 190 188 181 184 207 195 201 212 191 189 198 200 205 194 194 212 195 188 210 209 214 210 197 201 201 199 206 205 194 199 217 215 186 204 236 233 204 187 184 193 201 197 188 197 217 220 192 187 174 174 178 167 160 151 136 128 119 112 108 106 108 109
298 294 271 252 262 262 254 267 278 267 266 237 185 215 220 251 275 268 241 251 205 156 154 162 162 175 186 181 179 193 211 177 181 204 193 189 197 201 213 202 193 210 198 190 207 192 202 214 197 190 197 198 202 206 196 197 217 218 180 190 228 243 212 188 189 206 204 198 193 194 209 226 199 177 175 177 178 171 162 155 138 127 121 111 103 100 102 103
296 294 271 247 253 264 269 277 268 253 251 259 248 236 236 262 271 256 238 244 185 154 151 155 161 182 186 178 183 200 211 193 180 184 183 191 199 203 218 209 199 207 203 202 210 190 199 214 195 184 202 206 203 208 199 195 216 221 184 183 207 229 219 200 198 210 212 216 207 188 198 223 199 166 175 181 180 174 158 145 128 118 115 109 107 107 104 104
295 295 270 243 252 275 293 286 263 250 245 240 242 241 246 255 250 223 223 226 201 181 142 146 168 184 182 176 186 199 207 208 183 171 179 188 197 206 220 216 206 208 207 204 213 208 192 195 192 194 213 211 201 206 198 194 213 221 187 183 199 211 216 217 215 214 219 224 212 196 200 215 208 163 179 191 179 169 155 136 120 112 112 109 111 112 108 107
292 287 260 237 245 257 267 268 254 238 229 230 235 234 240 246 231 221 209 171 183 211 152 171 179 181 184 182 186 193 203 212 181 168 179 184 190 201 210 212 205 207 208 198 212 216 187 177 193 205 212 210 202 201 193 195 209 210 188 191 195 197 206 216 221 221 226 220 206 208 207 207 218 203 184 179 161 157 154 144 133 122 117 113 110 109 105 105
285 275 249 231 234 233 227 229 218 193 203 213 224 226 229 229 227 231 198 153 176 215 209 208 187 178 186 190 188 187 197 209 184 172 180 181 186 196 201 202 189 195 205 192 201 214 198 188 194 201 206 206 205 196 186 197 205 195 189 199 192 185 196 203 206 209 226 225 202 207 213 205 211 178 147 139 141 144 139 134 130 123 120 117 113 109 105 103
276 268 253 242 242 237 229 232 237 216 203 211 228 228 227 231 226 223 214 198 190 188 216 286 220 191 188 193 191 184 194 203 184 176 183 185 186 192 202 205 192 193 203 191 193 204 200 191 192 198 200 204 209 195 182 193 192 191 198 198 194 189 188 197 201 198 213 230 212 206 211 189 123 97 113 114 110 110 114 120 120 119 120 117 114 108 102 97
269 271 266 257 249 242 235 234 232 227 225 235 237 224 220 237 237 221 219 212 122 164 204 322 272 207 195 200 192 181 195 201 182 180 185 186 189 189 199 206 198 197 200 192 195 200 198 190 193 200 189 197 210 196 184 191 184 196 211 205 205 201 189 195 202 199 199 210 215 210 208 168 129 120 106 105 103 104 110 115 115 116 117 113 109 105 99 93
277 281 274 261 251 242 233 225 221 218 218 225 231 223 220 230 234 226 222 156 116 183 220 246 252 218 201 206 199 184 196 199 181 186 190 186 192 188 192 202 198 199 198 192 196 198 203 197 189 196 188 188 205 197 186 190 187 196 209 215 218 208 192 193 211 235 212 202 210 207 180 80 114 124 118 114 111 113 116 117 119 119 117 113 108 104 99 93
295 290 273 259 250 240 226 214 207 202 205 216 224 227 226 229 243 253 203 202 221 198 226 230 229 225 199 203 203 189 196 203 184 187 194 189 193 191 191 195 196 200 199 193 192 186 201 200 177 185 192 185 196 205 192 189 191 190 200 212 220 223 218 198 205 264 241 210 201 176 108 95 127 136 138 133 121 121 124 124 127 124 118 113 106 103 101 96
295 280 265 252 238 224 212 203 194 192 203 218 226 232 233 235 249 274 109 178 287 233 227 231 225 226 200 193 203 189 189 198 189 190 196 192 192 192 192 194 197 201 200 196 199 187 200 202 170 177 193 183 189 208 204 196 200 195 198 203 204 229 245 228 209 211 211 214 202 182 159 144 164 170 157 154 141 138 139 133 130 126 120 114 107 105 103 100
282 275 270 253 227 202 192 190 185 186 200 220 233 242 247 244 252 248 128 164 240 240 238 246 230 232 209 189 199 191 185 187 188 193 197 194 194 191 191 193 195 199 200 199 203 195 202 203 168 180 191 177 181 203 206 199 209 213 199 193 195 212 226 235 225 207 205 214 207 191 179 176 196 181 164 168 158 151 150 139 133 129 123 118 113 112 107 105
273 275 272 241 200 185 178 176 182 190 204 222 228 237 247 256 268 275 150 156 196 247 253 248 229 246 253 209 205 191 185 184 183 189 197 197 191 190 193 193 189 194 198 198 200 202 205 203 173 181 187 176 175 200 203 190 206 219 204 191 203 211 206 216 222 210 210 212 205 200 198 203 203 172 168 172 159 156 157 145 139 134 126 122 119 117 113 108
260 258 249 184 170 174 167 169 184 195 210 226 229 236 241 248 256 255 240 210 235 250 268 257 238 253 289 248 242 207 187 183 182 187 195 194 183 188 196 193 186 191 193 193 196 201 203 196 176 178 184 185 182 194 202 190 191 209 206 194 198 201 199 209 215 214 218 214 207 210 209 203 171 162 168 164 154 158 159 147 141 135 127 122 120 118 115 109
258 249 212 172 168 168 162 169 192 205 216 227 232 238 241 253 259 242 234 248 251 255 280 279 268 275 271 262 272 237 191 178 187 192 187 189 189 191 194 191 189 190 189 193 195 194 199 190 181 183 187 192 190 189 198 200 191 193 205 203 197 192 194 202 207 211 217 216 213 217 202 148 22 151 157 151 150 152 150 145 139 133 129 126 124 122 117 113
255 251 181 167 170 168 167 178 204 210 219 227 229 233 236 253 267 252 233 234 236 241 269 272 265 270 269 261 268 239 199 179 186 192 187 189 191 187 189 191 192 187 187 198 193 186 203 201 188 192 192 191 188 188 200 206 195 191 208 214 204 196 197 201 203 203 213 218 215 214 191 126 0 306 146 142 142 141 143 143 136 133 133 129 125 121 117 114
245 252 166 159 173 176 180 201 209 207 224 229 228 230 225 228 234 234 240 244 247 257 269 266 258 260 264 256 254 230 205 190 182 188 192 185 180 182 188 189 191 187 187 199 189 174 189 215 196 191 193 195 189 186 199 208 198 195 208 214 211 205 204 212 215 203 212 223 217 214 189 144 41 157 140 137 138 138 142 142 135 134 132 127 124 121 118 115
256 257 167 155 175 182 195 223 203 204 223 224 228 230 225 232 232 230 246 243 239 269 274 265 258 260 259 250 252 242 220 207 183 182 193 178 163 180 189 185 187 189 185 191 185 166 179 209 198 187 187 189 189 186 191 202 207 204 202 206 215 210 205 216 224 207 216 224 214 211 178 138 123 138 137 137 139 139 139 138 136 134 132 127 125 122 119 116
274 255 148 156 181 193 220 248 239 237 228 219 226 230 228 234 226 237 264 252 238 269 271 265 265 268 267 258 260 262 243 221 185 177 192 168 147 173 188 184 190 193 183 187 188 172 186 209 197 199 197 184 185 190 183 185 202 209 199 200 212 212 205 211 216 201 212 223 217 208 145 125 127 136 136 136 138 136 134 134 132 131 130 127 125 124 121 117
278 252 137 156 185 205 234 250 258 272 248 226 224 227 234 233 202 220 279 276 275 264 254 266 276 276 271 259 257 252 230 207 181 190 185 149 137 181 190 192 200 191 162 172 189 177 191 212 195 215 230 197 188 191 189 187 194 205 202 199 207 210 204 204 212 207 204 222 227 175 136 138 142 141 137 135 136 134 131 131 130 128 127 125 125 124 121 118
270 266 145 166 186 212 230 235 237 239 248 249 228 221 235 229 191 10 275 251 270 261 249 255 256 257 263 251 239 240 220 185 169 198 167 130 149 190 189 194 199 170 131 158 191 186 195 204 185 184 331 199 193 191 193 196 195 200 204 203 205 207 204 206 207 204 209 222 216 142 138 144 149 145 139 135 136 133 128 130 130 128 127 128 128 125 122 120
263 318 228 191 199 216 213 216 223 222 231 243 220 218 232 208 182 258 240 242 257 252 245 246 242 243 251 242 223 235 232 185 171 188 147 114 168 181 181 192 188 151 144 180 190 194 206 187 177 199 135 101 212 192 189 199 201 200 201 204 207 205 209 215 200 208 239 223 145 135 138 141 145 142 136 135 135 131 127 128 129 127 128 130 130 128 125 120
272 302 286 229 240 250 223 215 222 220 222 229 220 218 216 205 216 221 219 244 256 245 235 239 248 242 236 233 225 227 228 191 168 171 138 122 184 182 178 185 179 169 182 188 182 193 211 175 164 185 142 126 198 189 185 198 200 196 193 198 209 209 209 210 175 102 52 106 114 122 121 124 136 137 128 125 125 124 124 127 128 128 130 133 133 131 128 121
290 312 316 292 269 255 245 231 223 217 213 218 226 215 204 225 233 222 222 231 242 250 231 225 240 244 232 231 224 219 215 180 145 156 163 165 182 192 187 176 169 178 188 188 177 184 203 174 162 173 137 134 178 180 174 174 157 154 172 179 193 201 200 192 142 89 91 107 113 115 110 106 119 124 121 120 120 123 126 126 127 129 132 135 133 131 128 122
295 301 302 303 284 244 233 222 216 218 205 203 212 189 192 229 232 222 239 238 238 250 223 210 228 248 246 232 213 237 252 161 141 172 184 165 153 161 184 181 171 179 188 185 169 177 198 177 164 193 171 141 169 173 160 153 140 129 121 120 144 165 156 131 103 82 109 132 127 119 118 127 130 124 123 122 123 126 126 125 127 130 134 136 133 132 129 124
303 296 281 279 280 253 236 212 208 222 211 199 202 171 183 229 233 223 252 246 227 221 198 198 216 207 203 177 108 319 280 147 135 156 150 120 118 126 148 190 178 177 187 180 166 185 201 179 170 204 186 145 174 170 154 154 156 142 104 63 66 113 111 99 82 54 48 134 149 132 123 137 139 133 128 127 127 126 123 125 129 131 134 133 130 130 128 124